When you browse on this site, cookies collect data to enhance your experience and personalize the content and advertising you see.
Visit our Privacy Policy to learn more. By continuing to use the site, you agree to this use of cookies and data.

Stündliche Wetter Bolshie Letcy

Heute, 23 September, Mittwoch

Zeit Temperatur Niederschläge Wind Luftdruck Luftfeuchtigkeit
00:00 +12°C° 0 mm 2 m/S 747 mmHg 92%
01:00 +12°C° 0 mm 2 m/S 747 mmHg 92%
02:00 +12°C° 0 mm 2 m/S 747 mmHg 93%
03:00 +12°C° 0 mm 2 m/S 747 mmHg 93%
04:00 +10°C° 0 mm 2 m/S 747 mmHg 94%
05:00 +10°C° 0 mm 2 m/S 747 mmHg 94%
06:00 +12°C° 0 mm 2 m/S 747 mmHg 91%
07:00 +13°C° 0 mm 2 m/S 747 mmHg 88%
08:00 +14°C° 0 mm 2 m/S 747 mmHg 86%
09:00 +16°C° 0 mm 2 m/S 747 mmHg 80%
10:00 +18°C° 0 mm 3 m/S 747 mmHg 74%
11:00 +20°C° 0 mm 3 m/S 747 mmHg 69%
12:00 +21°C° 0 mm 3 m/S 747 mmHg 67%
13:00 +21°C° 0 mm 3 m/S 747 mmHg 64%
14:00 +22°C° 0 mm 4 m/S 747 mmHg 62%
15:00 +21°C° 0 mm 3 m/S 746 mmHg 66%
16:00 +20°C° 0 mm 3 m/S 746 mmHg 70%
17:00 +19°C° 0 mm 2 m/S 746 mmHg 74%
18:00 +17°C° 0 mm 3 m/S 746 mmHg 75%
19:00 +16°C° 0 mm 3 m/S 746 mmHg 76%
20:00 +13°C° 0 mm 3 m/S 746 mmHg 77%
21:00 +13°C° 0 mm 3 m/S 746 mmHg 75%
22:00 +12°C° 0 mm 3 m/S 746 mmHg 74%
23:00 +12°C° 0 mm 3 m/S 746 mmHg 72%

Morgen, 24 September, Donnerstag

Zeit Temperatur Niederschläge Wind Luftdruck Luftfeuchtigkeit
00:00 +11°C° 0 mm 3 m/S 746 mmHg 72%
01:00 +11°C° 0 mm 3 m/S 746 mmHg 72%
02:00 +11°C° 0 mm 3 m/S 746 mmHg 72%
03:00 +10°C° 0 mm 3 m/S 746 mmHg 71%
04:00 +10°C° 0 mm 3 m/S 746 mmHg 71%
05:00 +9°C° 0 mm 3 m/S 746 mmHg 71%
06:00 +10°C° 0 mm 3 m/S 746 mmHg 68%
07:00 +11°C° 0 mm 3 m/S 746 mmHg 66%
08:00 +12°C° 0 mm 4 m/S 746 mmHg 63%
09:00 +13°C° 0 mm 4 m/S 746 mmHg 60%
10:00 +15°C° 0 mm 4 m/S 746 mmHg 58%
11:00 +18°C° 0 mm 4 m/S 746 mmHg 55%
12:00 +18°C° 0 mm 4 m/S 746 mmHg 54%
13:00 +19°C° 0 mm 4 m/S 746 mmHg 53%
14:00 +20°C° 0 mm 4 m/S 746 mmHg 52%
15:00 +19°C° 0 mm 4 m/S 746 mmHg 58%
16:00 +18°C° 0 mm 3 m/S 746 mmHg 64%
17:00 +17°C° 0 mm 3 m/S 746 mmHg 70%
18:00 +16°C° 0 mm 3 m/S 746 mmHg 72%
19:00 +14°C° 0 mm 3 m/S 746 mmHg 75%
20:00 +12°C° 0 mm 3 m/S 746 mmHg 77%
21:00 +12°C° 0 mm 3 m/S 746 mmHg 77%
22:00 +12°C° 0 mm 3 m/S 746 mmHg 76%
23:00 +11°C° 0 mm 3 m/S 746 mmHg 76%

übermorgen, 25 September, Freitag

Zeit Temperatur Niederschläge Wind Luftdruck Luftfeuchtigkeit
00:00 +11°C° 0 mm 3 m/S 746 mmHg 76%
01:00 +11°C° 0 mm 3 m/S 746 mmHg 76%
02:00 +10°C° 0 mm 3 m/S 746 mmHg 76%
03:00 +10°C° 0 mm 3 m/S 746 mmHg 75%
04:00 +10°C° 0 mm 3 m/S 746 mmHg 74%
05:00 +10°C° 0 mm 3 m/S 746 mmHg 74%
06:00 +11°C° 0 mm 3 m/S 746 mmHg 72%
07:00 +12°C° 0 mm 3 m/S 745 mmHg 70%
08:00 +12°C° 0 mm 4 m/S 745 mmHg 69%
09:00 +14°C° 0 mm 4 m/S 745 mmHg 66%
10:00 +15°C° 0 mm 4 m/S 745 mmHg 62%
11:00 +18°C° 0 mm 4 m/S 745 mmHg 59%
12:00 +19°C° 0 mm 4 m/S 745 mmHg 58%
13:00 +20°C° 0 mm 4 m/S 745 mmHg 57%
14:00 +21°C° 0 mm 5 m/S 745 mmHg 56%
15:00 +20°C° 0 mm 4 m/S 745 mmHg 62%
16:00 +19°C° 0 mm 4 m/S 744 mmHg 67%
17:00 +18°C° 0 mm 4 m/S 744 mmHg 73%
18:00 +17°C° 0 mm 4 m/S 744 mmHg 75%
19:00 +15°C° 0 mm 4 m/S 744 mmHg 77%
20:00 +15°C° 0 mm 4 m/S 744 mmHg 80%
21:00 +15°C° 0 mm 4 m/S 744 mmHg 78%
22:00 +14°C° 0 mm 4 m/S 744 mmHg 77%
23:00 +14°C° 0 mm 4 m/S 744 mmHg 75%

26 September, Samstag

Zeit Temperatur Niederschläge Wind Luftdruck Luftfeuchtigkeit
00:00 +14°C° 0 mm 4 m/S 744 mmHg 73%
01:00 +14°C° 0 mm 4 m/S 744 mmHg 71%
02:00 +13°C° 0 mm 4 m/S 744 mmHg 70%
03:00 +13°C° 0 mm 4 m/S 743 mmHg 69%
04:00 +13°C° 0 mm 4 m/S 743 mmHg 69%
05:00 +13°C° 0 mm 5 m/S 743 mmHg 68%
06:00 +13°C° 0 mm 5 m/S 744 mmHg 68%
07:00 +14°C° 0 mm 5 m/S 744 mmHg 68%
08:00 +14°C° 0 mm 5 m/S 744 mmHg 67%
09:00 +16°C° 0 mm 5 m/S 744 mmHg 65%
10:00 +17°C° 0 mm 6 m/S 744 mmHg 62%
11:00 +20°C° 0 mm 6 m/S 744 mmHg 59%
12:00 +20°C° 0 mm 6 m/S 744 mmHg 58%
13:00 +21°C° 0 mm 6 m/S 744 mmHg 57%
14:00 +22°C° 0 mm 6 m/S 745 mmHg 55%
15:00 +21°C° 0 mm 6 m/S 744 mmHg 59%
16:00 +20°C° 0 mm 5 m/S 744 mmHg 63%
17:00 +19°C° 0 mm 5 m/S 744 mmHg 67%
18:00 +17°C° 0 mm 5 m/S 744 mmHg 67%
19:00 +17°C° 0 mm 5 m/S 745 mmHg 67%
20:00 +16°C° 0 mm 6 m/S 745 mmHg 67%
21:00 +15°C° 0 mm 6 m/S 745 mmHg 67%
22:00 +15°C° 0 mm 5 m/S 745 mmHg 67%
23:00 +14°C° 0 mm 5 m/S 745 mmHg 67%

27 September, Sonntag

Zeit Temperatur Niederschläge Wind Luftdruck Luftfeuchtigkeit
00:00 +14°C° 0 mm 5 m/S 745 mmHg 68%
01:00 +13°C° 0 mm 5 m/S 745 mmHg 69%
02:00 +13°C° 0 mm 5 m/S 744 mmHg 70%
03:00 +13°C° 0 mm 6 m/S 744 mmHg 70%
04:00 +13°C° 0 mm 6 m/S 744 mmHg 70%
05:00 +11°C° 0 mm 6 m/S 744 mmHg 69%
06:00 +13°C° 0 mm 6 m/S 744 mmHg 69%
07:00 +13°C° 0 mm 6 m/S 744 mmHg 68%
08:00 +14°C° 0 mm 6 m/S 744 mmHg 67%
09:00 +15°C° 0 mm 7 m/S 745 mmHg 64%
10:00 +17°C° 0 mm 7 m/S 745 mmHg 61%
11:00 +18°C° 0 mm 7 m/S 745 mmHg 58%
12:00 +20°C° 0 mm 7 m/S 745 mmHg 57%
13:00 +21°C° 0 mm 7 m/S 745 mmHg 56%
14:00 +21°C° 0 mm 7 m/S 745 mmHg 54%
15:00 +20°C° 0 mm 7 m/S 745 mmHg 57%
16:00 +19°C° 0 mm 6 m/S 745 mmHg 60%
17:00 +17°C° 0 mm 6 m/S 745 mmHg 63%
18:00 +16°C° 0 mm 6 m/S 745 mmHg 59%
19:00 +15°C° 0 mm 6 m/S 745 mmHg 56%
20:00 +15°C° 0 mm 6 m/S 745 mmHg 53%
21:00 +14°C° 0 mm 6 m/S 745 mmHg 53%
22:00 +14°C° 0 mm 6 m/S 745 mmHg 54%
23:00 +14°C° 0 mm 6 m/S 744 mmHg 54%

28 September, Montag

Zeit Temperatur Niederschläge Wind Luftdruck Luftfeuchtigkeit
00:00 +13°C° 0 mm 6 m/S 744 mmHg 54%
01:00 +13°C° 0 mm 6 m/S 744 mmHg 54%
02:00 +13°C° 0 mm 6 m/S 744 mmHg 54%
03:00 +13°C° 0.1 mm 6 m/S 744 mmHg 59%
04:00 +11°C° 0.1 mm 6 m/S 744 mmHg 64%
05:00 +11°C° 0.1 mm 6 m/S 743 mmHg 69%
06:00 +10°C° 0.9 mm 6 m/S 744 mmHg 76%
07:00 +10°C° 0.9 mm 6 m/S 744 mmHg 82%
08:00 +9°C° 0.9 mm 6 m/S 744 mmHg 88%
09:00 +10°C° 0.3 mm 6 m/S 744 mmHg 89%
10:00 +10°C° 0.3 mm 5 m/S 744 mmHg 90%
11:00 +10°C° 0.3 mm 5 m/S 745 mmHg 91%
12:00 +10°C° 0.2 mm 5 m/S 745 mmHg 91%
13:00 +12°C° 0.2 mm 4 m/S 745 mmHg 92%
14:00 +12°C° 0.2 mm 4 m/S 745 mmHg 92%
15:00 +12°C° 0.1 mm 4 m/S 745 mmHg 92%
16:00 +12°C° 0.1 mm 3 m/S 746 mmHg 93%
17:00 +12°C° 0.1 mm 3 m/S 746 mmHg 93%
18:00 +12°C° 0.1 mm 3 m/S 746 mmHg 93%
19:00 +11°C° 0.1 mm 3 m/S 746 mmHg 94%
20:00 +12°C° 0.1 mm 2 m/S 747 mmHg 94%
21:00 +10°C° 0 mm 2 m/S 747 mmHg 94%
22:00 +10°C° 0 mm 2 m/S 747 mmHg 94%
23:00 +9°C° 0 mm 2 m/S 748 mmHg 94%
Mehr zeigen